Regional Weather Roundup
Issued by NWS Newport/Morehead, NC

Current Version | Previous Version | Text Only | Print | Product List | Glossary On
Versions: 1 2 3 4 5 6 7 8 9 10 11 12 13 14 15 16 17 18 19 20 21 22 23 24 25 26 27 28 29 30 31 32 33 34 35 36 37 38 39 40 41 42 43 44 45 46 47 48 49 50
000
ASUS42 KMHX 201922
RWRMHX
WEATHER ROUNDUP FOR EASTERN NORTH CAROLINA
NATIONAL WEATHER SERVICE NEWPORT/MOREHEAD CITY NC
300 PM EDT SAT SEP 20 2014

NOTE: "FAIR" INDICATES FEW OR NO CLOUDS BELOW 12,000 FEET
WITH NO SIGNIFICANT WEATHER AND/OR OBSTRUCTIONS TO VISIBILITY

NCZ015>017-031-032-045>047-102-103-202000-
NORTH COAST

CITY           SKY/WX    TMP DP  RH WIND       PRES   REMARKS
EDENTON        PTSUNNY   75  71  89 NE9       30.06F
ELIZABETH CITY CLOUDY    74  69  85 NE16      30.09F
KITTY HAWK     MOCLDY    75  69  80 NE9G16    30.05F
MANTEO         PTSUNNY   74  69  82 N16       30.06F

$$

NCZ045>047-081-094-103-104-202000-
CENTRAL COAST

CITY           SKY/WX    TMP DP  RH WIND       PRES   REMARKS
FRISCO         CLOUDY    73  72  96 NE7       30.03F
SWANQUARTER      N/A     77 N/A N/A NE12G21   30.00F

$$

NCZ095-097-098-100-101-202000-
SOUTHERN COAST

CITY           SKY/WX    TMP DP  RH WIND       PRES   REMARKS
BEAUFORT       LGT RAIN  75  71  87 NE10      30.01F
CEDAR ISLAND     N/A     75 N/A N/A N12G22    30.06F
JACKSONVILLE   CLOUDY    77  69  76 N9        30.01F
NEWPORT        NOT AVBL
PINEY ISLAND   CLOUDY    77  70  79 N15G24    30.01F
WILMINGTON     CLOUDY    76  68  76 N10       30.01F


$$

NCZ011>013-027>030-043-044-078>080-089-090>093-098-202000-
COASTAL PLAIN

CITY           SKY/WX    TMP DP  RH WIND       PRES   REMARKS
AHOSKIE        PTSUNNY   78  65  62 N13G18    30.08F
CLINTON        PTSUNNY   78  66  65 N10       30.04F
ELIZABETHTOWN  CLOUDY    78  64  61 NE6       30.03F
GOLDSBORO      PTSUNNY   80  68  68 N1        30.04F
GREENVILLE     PTSUNNY   79  68  69 NE10      30.08F
HAVELOCK       CLOUDY    77  69  76 NE12      30.03F
KENANSVILLE    CLOUDY    78  63  60 NE5       30.04F
KINSTON        CLOUDY    79  64  61 NE12G18   30.06F
NEW BERN       CLOUDY    78  69  73 NE9G18    30.04F
RICHLANDS      CLOUDY    75  64  69 N8        30.03F
ROANOKE RAPIDS NOT AVBL
ROCKY MOUNT    PTSUNNY   81  62  52 N14       30.09F
WASHINGTON     PTSUNNY   77  68  74 N10       30.05F
WHITEVILLE     CLOUDY    77  65  67 N6        30.01F

$$

AMZ130-135-150-152-154-156-158-170-250-252-270-ANZ085-086-088-633-658-670-202000-
MARINE OBSERVATIONS

STATION/POSITION TIME  TEMP    WIND        PRES    WAVE   SWELL
                       AIR SEA DIR/SP/G            HT/PER HT/PER
                 (UTC) (F)     (DEG/KT/KT) (MB)    (FT/S) (FT/S)
CHESAPEAKE LIGHT 1900   71      50/ 19/ 20 1019.8
BUOY 44014       1900   74 77   30/ 14/ 17 1018.3    8/ 9   7/ 9
DUCK             1900   72 74   20/ 18/ 19 1017.5
2E DUCK          1800                        N/A     7/ 9   2/11
OREGON INLET     1900   74 73   10/ 12/ 16 1017.3
BUOY 44095       1900      74                N/A     8/ 9   3/11
20E OREGON INLET NOT AVBL
HATTERAS CG      1900   74 73   30/ 10/ 14 1017.0
DIAMOND BUOY     1900   80      90/ 12/ 14 1016.4    7/ 8   7/ 8
CAPE LOOKOUT     1900   73      20/ 16/ 19 1015.8
BEAUFORT LAB     1900   74 75   20/ 11/ 13 1015.6
30 SE NEW RIVER  1900   77 83   30/ 21/ 23 1015.5    5/ 9   3/ 9
5 SE WRIGHTSVILL 1900   73 80   40/ 17/ 21   N/A
BUOY 41002       1843   77 82  150/ 27/ 33 1011.3    9/ 7
BUOY 41004       1900   78 82   60/ 17/ 21 1013.2    8/ 7

$$


USA.gov is the U.S. government's official web portal to all federal, state and local government web resources and services.